Location: Azul
(36.7830°S, 59.8500°W)
Time: 08:13:15
(UTC-03:00)

ISS - Pass Details

Date: 25 May 2020
Orbit: 417 x 419 km, 51.6° (Epoch: 31 May)

Event Time Altitude Azimuth Distance (km) Brightness Sun altitude
Exits shadow 05:37:04 18° 116° (ESE) 1,113 -1.1 -28.0°
Drops below altitude 10° 05:38:08 10° 122° (ESE) 1,523 -0.3 -27.7°
Sets 05:40:17 0° 126° (SE) 2,394 0.7 -27.3°
